Regional Weather Roundup
Issued by NWS Wakefield, VA

Home | Current Version | Previous Version | Graphics & Text | Print | Product List | Glossary On
Versions: 1 2 3 4 5 6 7 8 9 10 11 12 13 14 15 16 17 18 19 20 21 22 23 24 25 26 27 28 29 30 31 32 33 34 35 36 37 38 39 40 41 42 43 44 45 46 47 48 49 50
000
ASUS41 KAKQ 250610
RWRAKQ

REGIONAL WEATHER ROUNDUP
NATIONAL WEATHER SERVICE WAKEFIELD VA
200 AM EDT FRI JUL 25 2014

Note: "fair" indicates few or no clouds below 12,000 feet with no
significant weather and/or obstructions to visibility. * = Denotes
station may not report precipitation (e.g., rain,snow,etc.),
thunder or fog.

VAZ042-051-052>054-056-250700-
NORTHERN VIRGINIA

CITY           SKY/WX    TMP DP  RH WIND       PRES   REMARKS
WASH NATIONAL  CLEAR     70  56  61 N7        29.99R
DULLES         PTCLDY    59  57  93 NW3       30.00R
FORT BELVOIR   CLEAR     62  61  96 NW1       29.99R
QUANTICO       CLEAR     65  62  90 NW9       29.99R
FREDERICKSBRG* CLEAR     66  66 100 NW3       29.99R
STAFFORD*      CLEAR     63  63 100 NW6       30.03R
WARRENTON      FOG       59  59 100 CALM      30.00R VSB 1/4
CULPEPER*      PTCLDY   N/A N/A N/A CALM      30.01R
MANASSAS*      CLEAR     61  61 100 CALM      30.00R
LEESBURG*      CLEAR     63  61  94 N5        30.01S
WINCHESTER     CLOUDY    63  55  77 NW3       30.01F
$$

VAZ048-049-060>072-079>083-250700-
CENTRAL AND SOUTH CENTRAL VIRGINIA...AND NORTH CENTRAL NORTH CAROLINA

CITY           SKY/WX    TMP DP  RH WIND       PRES   REMARKS
RICHMOND       PTCLDY    69  66  90 NW7       29.98R
CHESTERFIELD*  PTCLDY    66  57  72 NW6       30.00R
HANOVER        CLEAR     65  64  97 CALM      30.00R
TAPPAHANNOCK*  MOCLDY    68  65  89 CALM      29.98R
CHARLOTTSVILLE FOG       64  64 100 CALM      30.01R VSB 1/2
ORANGE*        CLEAR     63  63 100 CALM      30.02R
LOUISA*          N/A     63  63 100 CALM      29.99S FOG
FARMVILLE*     CLOUDY    64  64 100 CALM      29.99S FOG
SOUTH HILL*    CLOUDY    70  70 100 CALM      30.04R FOG
ROANOKE RAPIDS CLEAR     63  63 100 NW3       29.98R
RALEIGH        PTCLDY    67  65  93 NE3       29.99S
$$

VAZ088>098-250700-
SOUTHEAST VIRGINIA

CITY           SKY/WX    TMP DP  RH WIND       PRES   REMARKS
NORFOLK        CLOUDY    73  70  90 VRB3      29.93R
VIRGINIA BEACH CLOUDY    71  70  96 W6        29.92R
NORFOLK NAVAL  CLOUDY    72  69  90 NW8       29.94R
WEST POINT*    CLOUDY    71  67  89 NW3       29.97R
NEWPORT NEWS   CLOUDY    74  69  85 NW6       29.94R
LANGLEY AFB    CLOUDY    71  71 100 NW5       29.93R
FORT EUSTIS    MOCLDY    71  71 100 NW9       29.93R
WILLIAMSBURG*  PTCLDY    70  68  94 NW3       29.96R
FRANKLIN*      CLOUDY    70 N/A N/A NW3       29.96R
WAKEFIELD      PTCLDY    69  67  93 CALM      29.96R
$$

VAZ020-022-025-037-045-250700-
WESTERN AND SOUTHWEST VIRGINIA

CITY           SKY/WX    TMP DP  RH WIND       PRES   REMARKS
STAUNTON*      MOCLDY    66  64  91 CALM      30.05F FOG
HOT SPRINGS VA CLOUDY    56  52  86 NW3       30.14F
LYNCHBURG      CLOUDY    66  66 100 CALM      30.03S
DANVILLE       CLOUDY    70  66  87 NE5       30.02R
MARTINSVILLE   CLOUDY    70  67  90 N5        30.05S
ROANOKE        HVY RAIN  67  65  93 E3        30.06R FOG
BLACKSBURG     CLOUDY    64  64 100 W3          N/A
DUBLIN*        MOCLDY    64  61  88 CALM      30.09F
MARION*        CLOUDY   N/A N/A N/A CALM      30.13F
HILLSVILLE*    CLOUDY    64  59  84 N10       30.09F
RICHLANDS*     CLOUDY    64  62  94 CALM      30.12S
WISE*          PTCLDY    59  59 100 CALM      30.13F FOG
ABINGDON*      MOCLDY    64  62  95 CALM      30.09S
$$

MDZ021>025-VAZ099-100-250700-
SOUTHERN MARYLAND AND THE DELMARVA PENINSULA

CITY           SKY/WX    TMP DP  RH WIND       PRES   REMARKS
PATUXENT RIVER CLOUDY    70  62  76 NW8       29.95R
BAY BRIDGE APT   N/A     72  55  56 N7        29.97R
LEONARDTOWN    PTCLDY    64  59  82 CALM      29.99R
DOVER          MOCLDY    66  60  79 NW9       29.93R
GEORGETOWN     MOCLDY    68  60  75 VRB6      29.93R
EASTON         MOCLDY    69  61  75 NE3       29.99R
CAMBRIDGE      CLOUDY    72  55  56 N8        29.95R
SALISBURY      NOT AVBL
OCEAN CITY     CLOUDY    70  66  87 NW6       29.91S
WALLOPS ISLAND CLOUDY    71  66  84 NW5       29.93R
ACCOMACK*        N/A     70  68  94 CALM      29.92S FOG
$$

NCZ012>017-030>032-250700-
EASTERN NORTH CAROLINA

CITY           SKY/WX    TMP DP  RH WIND       PRES   REMARKS
ELIZABETH CITY CLOUDY    69  67  93 W7        29.94R
AHOSKIE*       CLOUDY    69  67  95 CALM      29.96S
EDENTON*       CLOUDY    69  67  94 N5        29.94S
CURRITUCK*     CLOUDY    71  68  90 W3        29.94R
KILL DEVIL HLS DRIZZLE   73  70  89 W5        29.89R
MANTEO         NOT AVBL
CAPE HATTERAS  RAIN      73  73 100 E7        29.91F
GOLDSBORO      PTCLDY    68  68  99 NW2       29.95S
WASHINGTON     CLOUDY    68  67  96 W3        29.96R
GREENVILLE     MOCLDY    68  68 100 NW3       29.99R
NEW BERN       CLOUDY    71  68  90 W5        29.96R
WILMINGTON     CLOUDY    74  71  91 CALM      29.96R
$$

VAZ048-250700-
ELSEWHERE

CITY           SKY/WX    TMP DP  RH WIND       PRES   REMARKS
HARRISBURG PA  CLEAR     61  51  70 NW5       30.01R
BALTIMORE      PTCLDY    66  54  65 N3        29.98R
ANNAPOLIS      MOCLDY    72  59  63 N9        29.97R
ANDREWS AFB    CLEAR     65  56  73 N9        29.98R
WILMINGTON DE  PTCLDY    64  54  69 N9        29.97R
PHILADELPHIA   PTCLDY    69  52  54 N7        29.96R
WILDWOOD NJ*   MOCLDY    70  57  64 N13       29.93R
ATLANTIC CITY  PTCLDY    64  58  80 MISG      29.93R
HENDERSON NC   CLOUDY    68  67  94 CALM      29.99S FOG
GREENSBORO     MOCLDY    68  66  93 N3        30.02R
ROCKY MOUNT    CLOUDY    68  66  93 NW3       29.98S
FAYETTEVILLE   CLOUDY    71  69  93 NE6       29.97S
CHARLOTTE      MOCLDY    71  67  87 CALM      30.00R
$$

VAZ100-250700-
MARINE

STATION/POSITION TIME  TEMP    WIND        PRES    WAVE   SWELL
                       AIR SEA DIR/SP/G            HT/PER HT/PER
                 (UTC) (F)     (DEG/KT/KT) (MB)    (FT/S) (FT/S)
44066 TX TWR #4  0600   73 74  310/ 12/ 14 1011.6R   3/ 8   2/ 8
CAPE MAY NJ      0600   72 77   10/  6/ 12 1012.7R
LEWES DE         0600   74 70   10/ 15/ 18 1012.8R
15NM E FENWICK I 0600   73 76              1012.4R   2/ 7
OCEAN-CITY-INLET 0600   71 70  340/  7/  8 1012.3R
WACHAPREAGUE VA  0600   70 80   CALM  /  1 1013.0R
THOMAS POINT MD  0600   73 79  350/ 14/ 16 1015.0R
GOOSES REEF MD   0600   76      30/ 16/ 19 1014.5S
COVE POINT MD    0600   75      20/ 15/ 18 1014.0R
SOLOMONS ISLAND  0600      80                N/A
BISHOPS HEAD MD  0600   72 79  350/  6/  9 1013.5R
PINEY POINT MD   0600          360/ 12/ 14   N/A
POTOMAC MD       0600   75     340/ 12/ 16 1013.1R
CAMBRIDGE MD     0600   72 80  360/ 12/ 14 1013.7S
LEWISETTA VA     0600   71 80  310/  8/ 10 1014.1R
RAPPAHANNOCK LGT 0600          330/ 13/ 15 1013.8R
STINGRAY PT      0600   73     330/ 14/ 16 1014.1R
YORK RVR RNG VA  0600   73     350/ 13/ 15 1012.8S
YORKTOWN VA      0600   71 80  330/ 12/ 13 1013.5R
JAMESTOWN VA     0600   71     350/  8/ 12   N/A
DOMINION TERM VA 0600   73     340/  7/  9 1013.6R
KIPTOPEKE VA     0600      81   50/  2/  3   N/A
CHES BAY BRIDGE  0600   74 78  270/  9/ 11 1012.6R
CAPE HENRY VA    0600   72     240/  5/  6 1011.9R
WILLOUBY STN VA  0600          340/  8/  9 1012.8R
S CRANEY ISL VA  0600          340/ 10/ 13 1013.4S
CAPE HENRY BUOY  0600      77                N/A     2/ 7
1ST LANDING BUOY 0600   75     280/  6/  8 1012.8S
CAPE CHARLES BUO 0600      76                N/A     2/ 8
OFFSHORE WE BUOY 0600      78                N/A     2/ 7
64NM E OF VA BCH 0600   75 78  150/  8/ 10 1010.9F   3/ 7   3/ 7
DUCK PIER NC     0600   76 76   CALM  /  2 1011.7R
44056 DUCK FRF   0600                        N/A     2/ 3
OREGON INLET NC  0600   74 78   90/ 10/ 13 1011.1F
HATTERAS NC      0600   75 80  100/  2/  4 1013.2F
DIAMOND SHLS NC  0600          VRB  4/  8  1012.8R   3/ 7   3/ 7
CAPE LOOKOUT NC  0600   72     350/  6/  6 1013.6F
$$


USA.gov is the U.S. government's official web portal to all federal, state and local government web resources and services.